STARLINK-11587, 63310

Orbit data source: Space-Track

STARLINK-11587, 63310 is a payload satellite owned by SpaceX/Seattle (US) in LEO that was launched on Tue, 18 Mar 2025 UTC via an FALCON 9 launch vehicle from the Air Force Eastern Test Range (AFETR). Payload-class satellites include a variety of spacecraft equipped with specific instruments for various scientific and technological missions. These include communications satellites like Starlink; space stations such as the ISS; scientific satellites like the Hubble; Earth observation satellites from companies like Planet Labs, Umbra, and HawkEye 360; GPS; miniature CubeSats for education and research; and military/defense satellites.

Loading next visibility...
Identifier
63310, 2025-057D
Orbit
LEO
Last TLE update
20 hours ago
Origin
Manufacturer
SpaceX/Seattle
Mission
Operational Commercial Communications
Bus & Motor
STARLINK V2M, Unknown motor
Mass
730 kg wet, ~700 kg dry
Launch date (UTC)
2025-03-18 (2 months ago)
Launch vehicle
FALCON 9
Launch site
Air Force Eastern Test Range (AFETR)
Object type
Payload
Rocket body
Debris
Shape & HBR
Box + 2 Pan, 29 m
Radar Cross Section
36.964 m², Large (>1 m²)

Expand to show TLE details & history

TLE from 20 hours ago
0 STARLINK-11587
1 63310U 25057D   25128.48975981  .00000407  00000-0  66774-5 0  9997
2 63310  43.0003 304.5389 0002740 287.6386  72.4182 15.70835400  9174
Epoch: 2025-05-08T11:45Z
Definitive object data (Epoch: 2025-05-08T11:45:15.247Z)
Latitude
-0.00004°
Longitude
-98.33419°
Altitude
355.723 km
Speed
7.698 km/s
True Right ascension
20h 18m 09s
True Declination
0° 00' 00"
Sunlit
Object was in daylight at TLE epoch
Visualization TLE readout
Latitude
21.37157°
Longitude
-78.69001°
Altitude
356.239 km
Speed
7.699 km/s
Apparent Right ascension
00h 14m 39s
Apparent Declination
-11° 58' 59"
Sunlit
Object is in daylight
Visualization observer readout
Local Sidereal Time
15:52:44
Azimuth
75.563° E
Elevation
-34.659°
Doppler factor
1
Orbital elements
Apogee altitude
360.336 km
Perigee altitude
356.644 km
Semi-major axis
6,736.627 km
Eccentricity
0.000274
Inclination
43.0003°
RAAN
304.5389°
Arg. of periapsis
287.6386°
True anomaly
72.44813°
Mean anomaly
72.4182°
Eccentric anomaly
72.43317°
Mean motion
3.92536 °/min
BSTAR
0.0000066774
Orbital period
91.71 mins
Loading maneuver chart data...
Loading SW <> Apogee altitude chart data...
Loading historical data...
Loading historical data...
Loading historical data...
Loading historical data...
Loading historical data...
Loading historical data...
Loading historical data...

STARLINK-11587 Visibility forecast

Observer location: undefined°, undefined°

Span
Click to sort rows by Start time (UTC) header in descending order
Start Az.
Max El. time (UTC)
Max El. Az.
Max El.
End time (UTC)
End Az.
4 mins2025-05-09 15:28:41.265Z229.971° WSW2025-05-09 15:29:41.265Z195.332° SSW39.938°2025-05-09 15:32:41.265Z76.487° E
4 mins2025-05-09 17:04:41.265Z290.89° WNW2025-05-09 17:06:41.265Z27.257° NE33.118°2025-05-09 17:08:41.265Z67.813° E
4 mins2025-05-09 18:40:41.265Z296.808° NW2025-05-09 18:42:41.265Z28.497° NE39.819°2025-05-09 18:44:41.265Z88.966° E
|